CCM26K LFMN-LFKC

Flight info

Callsign CCM26K
Flight time 0h 25m
Altitude 13000
Route SODRI
Aircraft A320/M-SDE3FGHIRWY/LB1

Departure

Time 2026-05-05 08:36
Airport Nice-Côte d'Azur Airport (LFMN)

Arrival

Time 2026-05-05 09:01
Airport Calvi Sainte Catherine Airport (LFKC)
Time Latitude Longitude Altitude Speed Heading
2026-05-05 08:09 43.65842 7.20594 22 ft 0 kts 326°
2026-05-05 08:29 43.65832 7.20603 24 ft 4 kts 326°
2026-05-05 08:29 43.65810 7.20624 25 ft 4 kts 321°
2026-05-05 08:29 43.65791 7.20650 25 ft 4 kts 297°
2026-05-05 08:30 43.65788 7.20674 25 ft 0 kts 224°
2026-05-05 08:31 43.65786 7.20672 24 ft 3 kts 224°
2026-05-05 08:31 43.65768 7.20647 24 ft 4 kts 224°
2026-05-05 08:31 43.65736 7.20603 22 ft 9 kts 225°
2026-05-05 08:32 43.65684 7.20531 22 ft 11 kts 225°
2026-05-05 08:32 43.65634 7.20463 22 ft 10 kts 225°
2026-05-05 08:32 43.65577 7.20383 22 ft 12 kts 224°
2026-05-05 08:32 43.65520 7.20305 22 ft 13 kts 225°
2026-05-05 08:33 43.65454 7.20215 22 ft 12 kts 225°
2026-05-05 08:33 43.65384 7.20183 22 ft 11 kts 168°
2026-05-05 08:33 43.65325 7.20231 22 ft 9 kts 135°
2026-05-05 08:33 43.65280 7.20294 22 ft 9 kts 134°
2026-05-05 08:34 43.65229 7.20364 22 ft 13 kts 135°
2026-05-05 08:34 43.65170 7.20446 22 ft 11 kts 135°
2026-05-05 08:34 43.65119 7.20517 22 ft 10 kts 135°
2026-05-05 08:34 43.65072 7.20581 22 ft 9 kts 135°
2026-05-05 08:35 43.65028 7.20641 22 ft 9 kts 135°
2026-05-05 08:35 43.65013 7.20710 22 ft 7 kts 72°
2026-05-05 08:35 43.65046 7.20762 22 ft 11 kts 44°
2026-05-05 08:35 43.65279 7.21081 23 ft 85 kts 45°
2026-05-05 08:36 43.65849 7.21863 26 ft 143 kts 44°
2026-05-05 08:36 43.66616 7.22907 430 ft 160 kts 44°
2026-05-05 08:36 43.67198 7.24178 1137 ft 164 kts 82°
2026-05-05 08:36 43.66882 7.25672 1864 ft 170 kts 129°
2026-05-05 08:37 43.65971 7.26839 2309 ft 190 kts 139°
2026-05-05 08:37 43.64913 7.28096 2671 ft 211 kts 139°
2026-05-05 08:37 43.63777 7.29455 3319 ft 219 kts 140°
2026-05-05 08:37 43.62624 7.30845 4207 ft 221 kts 140°
2026-05-05 08:38 43.61459 7.32264 5054 ft 225 kts 140°
2026-05-05 08:38 43.60269 7.33708 5876 ft 229 kts 144°
2026-05-05 08:38 43.58871 7.34743 6648 ft 231 kts 163°
2026-05-05 08:38 43.57350 7.35503 7499 ft 234 kts 164°
2026-05-05 08:39 43.55832 7.36267 8405 ft 236 kts 164°
2026-05-05 08:39 43.54282 7.37048 9296 ft 238 kts 165°
2026-05-05 08:39 43.52718 7.37838 10160 ft 241 kts 165°
2026-05-05 08:39 43.51128 7.38642 10809 ft 252 kts 165°
2026-05-05 08:40 43.49406 7.39503 11148 ft 276 kts 165°
2026-05-05 08:40 43.47521 7.40444 11453 ft 300 kts 165°
2026-05-05 08:40 43.45484 7.41465 11732 ft 324 kts 164°
2026-05-05 08:40 43.43293 7.42567 12014 ft 345 kts 164°
2026-05-05 08:41 43.41036 7.43709 12624 ft 354 kts 164°
2026-05-05 08:41 43.38717 7.44889 12886 ft 356 kts 164°
2026-05-05 08:41 43.36362 7.46089 12963 ft 371 kts 164°
2026-05-05 08:41 43.33878 7.47345 12961 ft 387 kts 164°
2026-05-05 08:42 43.31336 7.48633 12960 ft 390 kts 163°
2026-05-05 08:42 43.28787 7.49924 12962 ft 391 kts 163°
2026-05-05 08:42 43.26236 7.51209 12957 ft 391 kts 164°
2026-05-05 08:42 43.23686 7.52491 12960 ft 391 kts 164°
2026-05-05 08:43 43.21165 7.53756 12964 ft 391 kts 164°
2026-05-05 08:43 43.18613 7.55039 12961 ft 391 kts 164°
2026-05-05 08:43 43.16067 7.56361 12955 ft 393 kts 160°
2026-05-05 08:43 43.13706 7.58276 12960 ft 399 kts 146°
2026-05-05 08:44 43.11709 7.60956 12948 ft 406 kts 132°
2026-05-05 08:44 43.10231 7.64270 12950 ft 413 kts 117°
2026-05-05 08:44 43.09378 7.68042 12954 ft 418 kts 103°
2026-05-05 08:44 43.08898 7.71965 12953 ft 419 kts 102°
2026-05-05 08:45 43.08421 7.75895 12962 ft 419 kts 102°
2026-05-05 08:45 43.07950 7.79773 12965 ft 419 kts 102°
2026-05-05 08:45 43.07485 7.83706 12966 ft 419 kts 101°
2026-05-05 08:45 43.07032 7.87651 12971 ft 419 kts 101°
2026-05-05 08:46 43.06588 7.91591 12972 ft 419 kts 101°
2026-05-05 08:46 43.06145 7.95531 12974 ft 419 kts 101°
2026-05-05 08:46 43.05701 7.99467 12967 ft 419 kts 101°
2026-05-05 08:46 43.05254 8.03418 12967 ft 420 kts 101°
2026-05-05 08:47 43.04804 8.07356 12967 ft 420 kts 101°
2026-05-05 08:47 43.04347 8.11302 12976 ft 420 kts 102°
2026-05-05 08:47 43.03897 8.15188 12974 ft 420 kts 102°
2026-05-05 08:47 43.03435 8.19133 12971 ft 420 kts 102°
2026-05-05 08:48 43.02972 8.23069 12979 ft 420 kts 102°
2026-05-05 08:48 43.02508 8.27018 12982 ft 420 kts 102°
2026-05-05 08:48 43.02043 8.30959 12984 ft 420 kts 102°
2026-05-05 08:48 43.01578 8.34902 12969 ft 420 kts 102°
2026-05-05 08:49 43.01108 8.38836 12908 ft 418 kts 102°
2026-05-05 08:49 43.00602 8.42709 12294 ft 412 kts 103°
2026-05-05 08:49 43.00073 8.46440 11794 ft 393 kts 104°
2026-05-05 08:49 42.99560 8.49958 11607 ft 363 kts 104°
2026-05-05 08:50 42.99080 8.53216 11483 ft 337 kts 104°
2026-05-05 08:50 42.98627 8.56279 11054 ft 324 kts 104°
2026-05-05 08:50 42.98186 8.59272 10469 ft 319 kts 104°
2026-05-05 08:50 42.97755 8.62221 9919 ft 313 kts 104°
2026-05-05 08:51 42.97336 8.65113 9808 ft 312 kts 104°
2026-05-05 08:51 42.96913 8.68021 9191 ft 312 kts 104°
2026-05-05 08:51 42.96497 8.70887 8741 ft 308 kts 104°
2026-05-05 08:51 42.96071 8.73739 8083 ft 303 kts 108°
2026-05-05 08:52 42.95200 8.76269 7522 ft 289 kts 132°
2026-05-05 08:52 42.93770 8.78084 7001 ft 277 kts 154°
2026-05-05 08:52 42.92029 8.79037 6454 ft 268 kts 174°
2026-05-05 08:52 42.90183 8.79191 5954 ft 265 kts 184°
2026-05-05 08:53 42.88363 8.79199 5385 ft 259 kts 184°
2026-05-05 08:53 42.86576 8.79201 4951 ft 256 kts 184°
2026-05-05 08:53 42.84806 8.79200 4503 ft 254 kts 183°
2026-05-05 08:53 42.83070 8.79195 4056 ft 252 kts 183°
2026-05-05 08:54 42.81325 8.79194 3667 ft 246 kts 183°
2026-05-05 08:54 42.79706 8.79201 3609 ft 220 kts 183°
2026-05-05 08:54 42.78257 8.79208 3559 ft 197 kts 183°
2026-05-05 08:54 42.77153 8.79211 3498 ft 185 kts 183°
2026-05-05 08:55 42.75908 8.79215 3429 ft 167 kts 184°
2026-05-05 08:55 42.74822 8.79223 3347 ft 148 kts 184°
2026-05-05 08:55 42.73825 8.79228 3284 ft 144 kts 185°
2026-05-05 08:55 42.72833 8.79230 3215 ft 140 kts 185°
2026-05-05 08:56 42.71885 8.79234 3194 ft 134 kts 185°
2026-05-05 08:56 42.70961 8.79234 3119 ft 131 kts 186°
2026-05-05 08:56 42.70048 8.79224 3048 ft 131 kts 185°
2026-05-05 08:56 42.69136 8.79234 2976 ft 131 kts 185°
2026-05-05 08:57 42.68221 8.79231 2748 ft 132 kts 184°
2026-05-05 08:57 42.67308 8.79226 2586 ft 132 kts 182°
2026-05-05 08:57 42.66388 8.79242 2445 ft 133 kts 183°
2026-05-05 08:57 42.65470 8.79249 2276 ft 134 kts 184°
2026-05-05 08:58 42.64537 8.79252 2106 ft 133 kts 185°
2026-05-05 08:58 42.63615 8.79257 1931 ft 132 kts 186°
2026-05-05 08:58 42.62691 8.79261 1753 ft 134 kts 185°
2026-05-05 08:58 42.61753 8.79263 1575 ft 135 kts 187°
2026-05-05 08:59 42.60811 8.79265 1403 ft 136 kts 186°
2026-05-05 08:59 42.59871 8.79269 1226 ft 133 kts 186°
2026-05-05 08:59 42.58955 8.79270 1036 ft 131 kts 183°
2026-05-05 08:59 42.58042 8.79274 905 ft 131 kts 181°
2026-05-05 09:00 42.57143 8.79308 743 ft 133 kts 184°
2026-05-05 09:00 42.56220 8.79308 591 ft 131 kts 187°
2026-05-05 09:00 42.55324 8.79265 411 ft 128 kts 185°
2026-05-05 09:00 42.54442 8.79298 214 ft 126 kts 184°
2026-05-05 09:01 42.53574 8.79296 162 ft 120 kts 182°
2026-05-05 09:01 42.52888 8.79298 204 ft 64 kts 178°
2026-05-05 09:01 42.52618 8.79301 225 ft 27 kts 181°
2026-05-05 09:01 42.52472 8.79301 231 ft 12 kts 181°
2026-05-05 09:02 42.52436 8.79244 231 ft 5 kts 266°
2026-05-05 09:02 42.52436 8.79223 231 ft 1 kts 269°
2026-05-05 09:02 42.52435 8.79207 230 ft 4 kts 269°
2026-05-05 09:02 42.52452 8.79167 231 ft 6 kts 335°
2026-05-05 09:03 42.52512 8.79162 225 ft 8 kts 359°
2026-05-05 09:03 42.52547 8.79132 223 ft 4 kts 301°
2026-05-05 09:03 42.52555 8.79113 222 ft 3 kts 300°
2026-05-05 09:03 42.52566 8.79088 221 ft 4 kts 301°
2026-05-05 09:04 42.52570 8.79079 221 ft 0 kts 301°